Weather in Ostrog

Ukraine / Rovno District     50°19′39″N   26°30′49″E
temp.,
°C
wind,
m/s
gust,
m/s
humid.,
%
clouds,
%
prec.,
mm/h
press.,
hPa
HPBL,
m
7 may, fri
fri700:00+6s488481 0.0 1013144
03:00+5s4992100 0.0 1012176
06:00+6s3784100 0.0 1011145
09:00+10s51066100 0.0 1010558
12:00+11s51081100 0.8 1008704
15:00+14sw61072100 1.0 10071206
18:00+12wsw3784100 0.8 1006304
21:00+10w2286100 1.4 100625
8 may, sat
sat800:00+9wsw61289100 1.2 1007554
03:00+7w71291100 2.0 1010779
06:00+4w8138795 0.1 1012941
09:00+5w121880100 0.2 10141293
12:00+7wnw10137091 0.2 10171459
15:00+8wnw9116966 0.8 10181387
18:00+7wnw71068100 0.1 10201406
21:00+4wnw49811 0.1 1021239
9 may, sun
sun900:00+2w23870 0.0 102338
03:00+2wsw22905 0.0 102426
06:00+2w22920 0.0 102535
09:00+8wnw24670 0.0 1026412
12:00+12wsw23465 0.0 10261592
15:00+14sw344144 0.0 10252054
18:00+15ssw234312 0.0 10251905
21:00+9sse33633 0.0 102623
10 may, mon
mon1000:00+7sse367226 0.0 102783
03:00+6sse377326 0.0 1027107
06:00+5se310754 0.0 1027158
09:00+12sse6115832 0.0 1026526
12:00+16sse8104758 0.0 10261186
15:00+18sse79445 0.0 10251379
18:00+17se68540 0.0 10241226
21:00+12se513700 0.0 1025341
11 may, tue
tue1100:00+10se514722 0.0 1025316
03:00+8se514790 0.0 1025316
06:00+7se512760 0.0 1025254
09:00+12se610630 0.0 1024495
12:00+16se68460 0.0 10231037
15:00+19se68480 0.0 10211276
18:00+19se58600 0.0 10201399
21:00+13ese410830 0.0 1019170